Flag for U.S.A. Weather past 2 weeks in West Palm Beach, Florida, U.S.A.

Now
80 °F

Broken clouds.


Feels Like: 85 °F
Forecast: 78 / 87 °F
Wind: No wind

Location: Palm Beach International Airport

Current Time: Aug 1, 2014 at 8:23:43 AM

Latest Report: Aug 1, 2014 at 7:53 AM


Visibility: 10 mi

Pressure: 29.96 "Hg

Humidity: 87%

Dew point: 76 °F

Location of West Palm BeachLocation

Historic Weather in West Palm Beach — Graph

°F

West Palm Beach temperature yesterday

Maximum temperature yesterday: 90 °F (at 12:53 PM)
Minimum temperature yesterday: 73 °F (at 4:53 PM)
Average temperature yesterday: 81 °F

Past Weeks' High & Low Weather Summary

 TemperatureHumidityPressure
High94 °F (Jul 28, 4:53 PM)97% (Jul 19, 4:53 AM)30.11 "Hg (Jul 19, 4:53 AM)
Low73 °F (Jul 17, 12:53 PM)42% (Jul 28, 3:53 PM)29.92 "Hg (Jul 30, 4:53 PM)
Average83 °F77%30.02 "Hg
* Reported Jul 17 6:53 AM — Aug 1 6:53 AM, West Palm Beach, Weather by CustomWeather, © 2014

Note: Actual official high and low records may vary slightly from our data, if they occured in-between our weather recording intervals... More about our weather records

Advertising

West Palm Beach weather history for previous 24 hours

 ConditionsComfort  
Time TempWeatherWind HumidityBarometerVisibility
6:53 AM
Aug 1
77 °FPartly cloudy.5 mph94%29.95 "Hg10 mi
5:53 AM78 °FPassing clouds.3 mph90%29.94 "Hg10 mi
4:53 AM80 °FPassing clouds.7 mph87%29.92 "Hg10 mi
3:53 AM80 °FPassing clouds.5 mph87%29.94 "Hg10 mi
2:53 AM80 °FPartly cloudy.5 mph87%29.95 "Hg10 mi
1:53 AM80 °FPassing clouds.5 mph85%29.98 "Hg10 mi
12:53 AM79 °FPassing clouds.No wind90%29.99 "Hg10 mi
11:53 PM
Jul 31
79 °FPartly cloudy.3 mph90%30.00 "Hg10 mi
10:53 PM79 °FPassing clouds.3 mph88%30.01 "Hg10 mi
9:53 PM80 °FPassing clouds.3 mph85%29.98 "Hg10 mi
8:53 PM79 °FBroken clouds.3 mph88%29.99 "Hg10 mi
7:53 PM79 °FBroken clouds.3 mph88%29.98 "Hg10 mi
6:53 PM79 °FBroken clouds.7 mph84%29.98 "Hg10 mi
5:53 PM78 °FBroken clouds.5 mph87%29.96 "Hg10 mi
5:04 PM75 °FThunderstorms. Fog.8 mph88%29.98 "Hg4 mi
4:53 PM73 °FStrong thunderstorms. Fog.9 mph90%29.99 "Hg2 mi
3:53 PM80 °FThunderstorms. Broken clouds.13 mph79%29.99 "Hg10 mi
2:53 PM90 °FBroken clouds.17 mph57%29.95 "Hg10 mi
1:53 PM90 °FBroken clouds.17 mph61%29.97 "Hg10 mi
12:53 PM90 °FPartly sunny.15 mph61%29.97 "Hg10 mi
11:53 AM89 °FBroken clouds.10 mph59%29.99 "Hg10 mi
10:53 AM88 °FBroken clouds.10 mph63%29.98 "Hg10 mi
9:53 AM85 °FBroken clouds.8 mph75%29.98 "Hg10 mi
8:53 AM83 °FBroken clouds.7 mph79%29.97 "Hg10 mi
Weather by CustomWeather, © 2014

See weather overviewHow to use our weather pages